EW4185 Weather Reports


time (UTC)temp
F
wind
direction
speed
knots
gust
knots
rain 1hr
in
rain 24hr
in
rain mn
in
humidity
%
barometer
mb
20260505170302 71 261 1.7 4.3 0.00 0.00 0.00 60 1006.7
20260505165402 70 266 2.6 5.2 0.00 0.00 0.00 61 1006.7
20260505164501 70 309 0.9 3.5 0.00 0.00 0.00 62 1006.8
20260505163602 70 263 0.9 3.5 0.00 0.00 0.00 62 1006.6
20260505162702 70 264 1.7 6.1 0.00 0.00 0.00 62 1006.7
20260505161801 69 262 0.9 3.5 0.00 0.00 0.00 63 1006.6
20260505160901 69 265 0.9 3.5 0.00 0.00 0.00 66 1006.6
20260505153302 68 251 0.0 2.6 0.00 0.00 0.00 66 1006.5
20260505152402 68 50 0.0 0.9 0.00 0.00 0.00 70 1006.5
20260505151502 66 49 0.0 1.7 0.00 0.00 0.00 74 1006.4
20260505140302 55 79 0.9 2.6 0.00 0.00 0.00 86 1005.8
20260505124202 49 92 2.6 4.3 0.00 0.00 0.00 89 1004.8
20260505122402 50 92 1.7 3.5 0.00 0.00 0.00 90 1004.6
20260505121502 49 87 1.7 3.5 0.00 0.00 0.00 89 1004.5
20260505120602 50 88 2.6 3.5 0.00 0.00 0.00 88 1004.5
20260505114802 50 102 1.7 2.6 0.00 0.00 0.00 89 1004.3
20260505112102 51 95 1.7 3.5 0.00 0.00 0.00 88 1004.1
20260505111202 51 99 1.7 3.5 0.00 0.00 0.00 89 1004.0
20260505110302 51 84 1.7 3.5 0.00 0.00 0.00 88 1003.8
20260505101802 51 86 1.7 3.5 0.00 0.00 0.00 89 1003.4
20260505100902 52 97 1.7 3.5 0.00 0.00 0.00 88 1003.3
20260505100002 52 92 0.9 2.6 0.00 0.00 0.00 88 1003.1
20260505095102 52 86 1.7 3.5 0.00 0.00 0.00 88 1003.1
20260505094202 52 92 0.9 3.5 0.00 0.00 0.00 89 1003.1
20260505092402 52 86 1.7 2.6 0.00 0.00 0.00 88 1003.0
20260505091502 53 82 0.0 2.6 0.00 0.00 0.00 87 1003.1
20260505085702 54 80 1.7 3.5 0.00 0.00 0.00 86 1002.9
20260505084802 54 88 1.7 3.5 0.00 0.00 0.00 85 1002.8
20260505083902 55 78 1.7 3.5 0.00 0.00 0.00 84 1002.7
20260505082102 56 94 2.6 4.3 0.00 0.00 0.00 84 1002.6
20260505081202 55 96 2.6 4.3 0.00 0.00 0.00 85 1002.5
20260505075402 56 93 1.7 2.6 0.00 0.00 0.00 84 1002.3
20260505074502 55 101 1.7 2.6 0.00 0.00 0.00 85 1002.3
20260505073602 56 97 0.0 1.7 0.00 0.00 0.00 83 1002.3
20260505071802 56 259 2.6 9.6 0.00 0.00 0.00 82 1002.4
20260505070002 57 97 0.9 2.6 0.00 0.00 0.00 81 1001.8
20260505064202 58 98 1.7 3.5 0.00 0.00 0.00 80 1001.6
20260505063302 58 84 1.7 3.5 0.00 0.00 0.00 79 1001.6
20260505061502 59 78 0.0 1.7 0.00 0.00 0.00 79 1001.5
20260505060602 59 75 1.7 4.3 0.00 0.00 0.00 79 1001.4
20260505054802 59 80 2.6 4.3 0.00 0.00 0.00 79 1001.3
20260505053002 60 80 0.9 3.5 0.00 0.00 0.00 78 1001.3
20260505050302 62 76 1.7 4.3 0.00 0.00 0.00 73 1001.2
20260505035102 66 102 2.6 6.1 0.00 0.00 0.00 64 1000.5
20260505031502 70 101 1.7 3.5 0.00 0.00 0.00 59 1000.2
20260505030602 72 106 3.5 4.3 0.00 0.00 0.00 54 1000.0
20260505025702 73 106 3.5 5.2 0.00 0.00 0.00 55 1000.0
20260505024802 73 107 2.6 5.2 0.00 0.00 0.00 57 999.9
20260505023902 74 108 2.6 3.5 0.00 0.00 0.00 56 1000.0
20260505023002 77 120 0.9 3.5 0.00 0.00 0.00 53 999.9
20260505022102 80 160 1.7 3.5 0.00 0.00 0.00 44 1000.0
20260505014502 82 147 0.0 3.5 0.00 0.00 0.00 43 1000.1
20260505013602 82 118 0.9 2.6 0.00 0.00 0.00 41 1000.2
20260505012702 83 121 0.9 3.5 0.00 0.00 0.00 41 1000.3
20260505011802 84 147 0.9 3.5 0.00 0.00 0.00 40 1000.4
20260505010902 84 154 0.9 4.3 0.00 0.00 0.00 40 1000.4
20260505010003 83 117 3.5 7.0 0.00 0.00 0.00 37 1000.5
20260505005102 84 117 3.5 7.0 0.00 0.00 0.00 36 1000.4
20260505004202 84 120 2.6 7.8 0.00 0.00 0.00 37 1000.5
20260505003302 86 149 2.6 4.3 0.00 0.00 0.00 33 1000.6
20260505002402 86 148 2.6 6.1 0.00 0.00 0.00 34 1000.7
20260505001502 86 144 2.6 5.2 0.00 0.00 0.00 32 1000.8
20260504235702 86 251 1.7 3.5 0.00 0.00 0.00 30 1000.8
20260504234802 86 257 1.7 4.3 0.00 0.00 0.00 31 1000.8
20260504233902 86 113 0.0 3.5 0.00 0.00 0.00 30 1000.9
20260504233002 86 116 0.9 3.5 0.00 0.00 0.00 29 1000.9
20260504231202 86 252 1.7 5.2 0.00 0.00 0.00 32 1001.0
20260504230302 86 196 1.7 5.2 0.00 0.00 0.00 30 1001.2
20260504225402 86 201 1.7 4.3 0.00 0.00 0.00 28 1001.2
20260504224502 85 145 1.7 5.2 0.00 0.00 0.00 29 1001.3
20260504223602 84 106 1.7 5.2 0.00 0.00 0.00 30 1001.5
20260504222702 85 109 3.5 10.4 0.00 0.00 0.00 30 1001.6
20260504221802 85 239 1.7 4.3 0.00 0.00 0.00 30 1001.6
20260504220902 85 224 1.7 7.0 0.00 0.00 0.00 31 1001.8
20260504220002 84 246 0.9 7.0 0.00 0.00 0.00 33 1001.8
20260504215102 84 236 0.0 2.6 0.00 0.00 0.00 31 1001.9
20260504214202 83 258 3.5 5.2 0.00 0.00 0.00 31 1002.1
20260504213302 83 239 2.6 7.0 0.00 0.00 0.00 34 1002.2
20260504212402 83 252 2.6 7.0 0.00 0.00 0.00 34 1002.3
20260504210602 82 250 3.5 6.1 0.00 0.00 0.00 37 1002.5
20260504205702 82 256 2.6 6.1 0.00 0.00 0.00 36 1002.6
20260504204802 82 262 2.6 7.0 0.00 0.00 0.00 30 1002.7
20260504203902 82 257 3.5 6.1 0.00 0.00 0.00 32 1002.8
20260504203002 82 259 2.6 6.1 0.00 0.00 0.00 38 1002.9
20260504202102 81 259 2.6 6.1 0.00 0.00 0.00 32 1003.0
20260504201202 81 273 1.7 6.1 0.00 0.00 0.00 34 1003.1
20260504200304 81 274 1.7 4.3 0.00 0.00 0.00 39 1003.1
20260504194502 79 274 2.6 6.1 0.00 0.00 0.00 38 1003.2
20260504193603 79 270 2.6 6.1 0.00 0.00 0.00 35 1003.2
20260504192702 79 263 3.5 6.1 0.00 0.00 0.00 37 1003.3
20260504191802 78 261 3.5 6.1 0.00 0.00 0.00 39 1003.3
20260504185103 77 270 2.6 6.1 0.00 0.00 0.00 38 1003.4
20260504184202 77 272 2.6 5.2 0.00 0.00 0.00 39 1003.5
20260504183303 77 269 3.5 7.0 0.00 0.00 0.00 37 1003.6
20260504182402 77 287 1.7 4.3 0.00 0.00 0.00 39 1003.6
20260504180603 77 317 0.9 4.3 0.00 0.00 0.00 42 1003.8
20260504175703 76 285 1.7 4.3 0.00 0.00 0.00 43 1003.9
20260504174803 75 291 0.9 4.3 0.00 0.00 0.00 47 1003.8
20260504173902 74 275 1.7 4.3 0.00 0.00 0.00 51 1003.8
20260504173002 73 274 2.6 5.2 0.00 0.00 0.00 49 1003.7
20260504172102 73 263 4.3 7.0 0.00 0.00 0.00 49 1003.8
20260504171203 72 266 2.6 7.0 0.00 0.00 0.00 50 1003.7